Year,Month,Day,Hour,Minute,Value (Times are PST for temperature in C)
2016,06,21,00,00,13.50
2016,06,21,00,01,13.50
2016,06,21,00,02,13.50
2016,06,21,00,03,13.50
2016,06,21,00,04,13.40
2016,06,21,00,05,13.40
2016,06,21,00,06,13.40
2016,06,21,00,07,13.40
2016,06,21,00,08,13.40
2016,06,21,00,09,13.40
2016,06,21,00,10,13.40
2016,06,21,00,11,13.40
2016,06,21,00,12,13.40
2016,06,21,00,13,13.30
2016,06,21,00,14,13.30
2016,06,21,00,15,13.30
2016,06,21,00,16,13.30
2016,06,21,00,17,13.30
2016,06,21,00,18,13.30
2016,06,21,00,19,13.30
2016,06,21,00,20,13.30
2016,06,21,00,21,13.30
2016,06,21,00,22,13.30
2016,06,21,00,23,13.30
2016,06,21,00,24,13.30
2016,06,21,00,25,13.20
2016,06,21,00,26,13.20
2016,06,21,00,27,13.20
2016,06,21,00,28,13.20
2016,06,21,00,29,13.20
2016,06,21,00,30,13.20
2016,06,21,00,31,13.20
2016,06,21,00,32,13.20
2016,06,21,00,33,13.20
2016,06,21,00,34,13.20
2016,06,21,00,35,13.20
2016,06,21,00,36,13.20
2016,06,21,00,37,13.20
2016,06,21,00,38,13.20
2016,06,21,00,39,13.20
2016,06,21,00,40,13.20
2016,06,21,00,41,13.20
2016,06,21,00,42,13.20
2016,06,21,00,43,13.10
2016,06,21,00,44,13.10
2016,06,21,00,45,13.10
2016,06,21,00,46,13.10
2016,06,21,00,47,13.10
2016,06,21,00,48,13.10
2016,06,21,00,49,13.10
2016,06,21,00,50,13.10
2016,06,21,00,51,13.10
2016,06,21,00,52,13.10
2016,06,21,00,53,13.10
2016,06,21,00,54,13.10
2016,06,21,00,55,13.10
2016,06,21,00,56,13.10
2016,06,21,00,57,13.10
2016,06,21,00,58,13.10
2016,06,21,00,59,13.10
2016,06,21,01,00,13.00
2016,06,21,01,01,13.00
2016,06,21,01,02,13.00
2016,06,21,01,03,13.00
2016,06,21,01,04,13.00
2016,06,21,01,05,13.00
2016,06,21,01,06,12.90
2016,06,21,01,07,12.90
2016,06,21,01,08,12.90
2016,06,21,01,09,12.90
2016,06,21,01,10,12.90
2016,06,21,01,11,12.90
2016,06,21,01,12,12.90
2016,06,21,01,13,12.90
2016,06,21,01,14,12.90
2016,06,21,01,15,12.90
2016,06,21,01,16,12.90
2016,06,21,01,17,12.90
2016,06,21,01,18,12.90
2016,06,21,01,19,12.90
2016,06,21,01,20,12.90
2016,06,21,01,21,12.90
2016,06,21,01,22,12.90
2016,06,21,01,23,12.90
2016,06,21,01,24,12.90
2016,06,21,01,25,12.90
2016,06,21,01,26,12.90
2016,06,21,01,27,12.90
2016,06,21,01,28,12.90
2016,06,21,01,29,12.90
2016,06,21,01,30,12.90
2016,06,21,01,31,12.90
2016,06,21,01,32,12.90
2016,06,21,01,33,12.90
2016,06,21,01,34,12.90
2016,06,21,01,35,12.90
2016,06,21,01,36,12.90
2016,06,21,01,37,12.90
2016,06,21,01,38,12.80
2016,06,21,01,39,12.80
2016,06,21,01,40,12.80
2016,06,21,01,41,12.80
2016,06,21,01,42,12.80
2016,06,21,01,43,12.80
2016,06,21,01,44,12.80
2016,06,21,01,45,12.80
2016,06,21,01,46,12.80
2016,06,21,01,47,12.80
2016,06,21,01,48,12.80
2016,06,21,01,49,12.80
2016,06,21,01,50,12.80
2016,06,21,01,51,12.80
2016,06,21,01,52,12.80
2016,06,21,01,53,12.80
2016,06,21,01,54,12.80
2016,06,21,01,55,12.70
2016,06,21,01,56,12.70
2016,06,21,01,57,12.70
2016,06,21,01,58,12.70
2016,06,21,01,59,12.70
2016,06,21,02,00,12.70
2016,06,21,02,01,12.70
2016,06,21,02,02,12.70
2016,06,21,02,03,12.70
2016,06,21,02,04,12.70
2016,06,21,02,05,12.70
2016,06,21,02,06,12.70
2016,06,21,02,07,12.70
2016,06,21,02,08,12.60
2016,06,21,02,09,12.60
2016,06,21,02,10,12.60
2016,06,21,02,11,12.60
2016,06,21,02,12,12.60
2016,06,21,02,13,12.60
2016,06,21,02,14,12.50
2016,06,21,02,15,12.50
2016,06,21,02,16,12.50
2016,06,21,02,17,12.50
2016,06,21,02,18,12.40
2016,06,21,02,19,12.40
2016,06,21,02,20,12.40
2016,06,21,02,21,12.40
2016,06,21,02,22,12.40
2016,06,21,02,23,12.40
2016,06,21,02,24,12.30
2016,06,21,02,25,12.30
2016,06,21,02,26,12.30
2016,06,21,02,27,12.30
2016,06,21,02,28,12.30
2016,06,21,02,29,12.30
2016,06,21,02,30,12.30
2016,06,21,02,31,12.30
2016,06,21,02,32,12.30
2016,06,21,02,33,12.30
2016,06,21,02,34,12.30
2016,06,21,02,35,12.30
2016,06,21,02,36,12.30
2016,06,21,02,37,12.30
2016,06,21,02,38,12.20
2016,06,21,02,39,12.20
2016,06,21,02,40,12.20
2016,06,21,02,41,12.20
2016,06,21,02,42,12.20
2016,06,21,02,43,12.20
2016,06,21,02,44,12.20
2016,06,21,02,45,12.20
2016,06,21,02,46,12.20
2016,06,21,02,47,12.20
2016,06,21,02,48,12.20
2016,06,21,02,49,12.20
2016,06,21,02,50,12.20
2016,06,21,02,51,12.20
2016,06,21,02,52,12.20
2016,06,21,02,53,12.20
2016,06,21,02,54,12.20
2016,06,21,02,55,12.20
2016,06,21,02,56,12.20
2016,06,21,02,57,12.20
2016,06,21,02,58,12.20
2016,06,21,02,59,12.20
2016,06,21,03,00,12.20
2016,06,21,03,01,12.20
2016,06,21,03,02,12.20
2016,06,21,03,03,12.10
2016,06,21,03,04,12.10
2016,06,21,03,05,12.10
2016,06,21,03,06,12.10
2016,06,21,03,07,12.10
2016,06,21,03,08,12.10
2016,06,21,03,09,12.10
2016,06,21,03,10,12.10
2016,06,21,03,11,12.10
2016,06,21,03,12,12.10
2016,06,21,03,13,12.10
2016,06,21,03,14,12.10
2016,06,21,03,15,12.10
2016,06,21,03,16,12.10
2016,06,21,03,17,12.00
2016,06,21,03,18,12.10
2016,06,21,03,19,12.10
2016,06,21,03,20,12.10
2016,06,21,03,21,12.10
2016,06,21,03,22,12.10
2016,06,21,03,23,12.10
2016,06,21,03,24,12.10
2016,06,21,03,25,12.10
2016,06,21,03,26,12.10
2016,06,21,03,27,12.10
2016,06,21,03,28,12.10
2016,06,21,03,29,12.10
2016,06,21,03,30,12.10
2016,06,21,03,31,12.10
2016,06,21,03,32,12.10
2016,06,21,03,33,12.10
2016,06,21,03,34,12.10
2016,06,21,03,35,12.10
2016,06,21,03,36,12.10
2016,06,21,03,37,12.10
2016,06,21,03,38,12.10
2016,06,21,03,39,12.10
2016,06,21,03,40,12.10
2016,06,21,03,41,12.10
2016,06,21,03,42,12.10
2016,06,21,03,43,12.10
2016,06,21,03,44,12.10
2016,06,21,03,45,12.10
2016,06,21,03,46,12.10
2016,06,21,03,47,12.10
2016,06,21,03,48,12.10
2016,06,21,03,49,12.10
2016,06,21,03,50,12.10
2016,06,21,03,51,12.10
2016,06,21,03,52,12.10
2016,06,21,03,53,12.10
2016,06,21,03,54,12.10
2016,06,21,03,55,12.10
2016,06,21,03,56,12.10
2016,06,21,03,57,12.10
2016,06,21,03,58,12.10
2016,06,21,03,59,12.10
2016,06,21,04,00,12.10
2016,06,21,04,01,12.10
2016,06,21,04,02,12.10
2016,06,21,04,03,12.10
2016,06,21,04,04,12.10
2016,06,21,04,05,12.10
2016,06,21,04,06,12.10
2016,06,21,04,07,12.20
2016,06,21,04,08,12.20
2016,06,21,04,09,12.20
2016,06,21,04,10,12.20
2016,06,21,04,11,12.20
2016,06,21,04,12,12.30
2016,06,21,04,13,12.30
2016,06,21,04,14,12.40
2016,06,21,04,15,12.50
2016,06,21,04,16,12.50
2016,06,21,04,17,12.60
2016,06,21,04,18,12.70
2016,06,21,04,19,12.80
2016,06,21,04,20,12.90
2016,06,21,04,21,12.90
2016,06,21,04,22,13.00
2016,06,21,04,23,13.00
2016,06,21,04,24,13.10
2016,06,21,04,25,13.10
2016,06,21,04,26,13.10
2016,06,21,04,27,13.20
2016,06,21,04,28,13.20
2016,06,21,04,29,13.20
2016,06,21,04,30,13.20
2016,06,21,04,31,13.30
2016,06,21,04,32,13.30
2016,06,21,04,33,13.30
2016,06,21,04,34,13.30
2016,06,21,04,35,13.30
2016,06,21,04,36,13.30
2016,06,21,04,37,13.30
2016,06,21,04,38,13.30
2016,06,21,04,39,13.30
2016,06,21,04,40,13.30
2016,06,21,04,41,13.30
2016,06,21,04,42,13.30
2016,06,21,04,43,13.30
2016,06,21,04,44,13.30
2016,06,21,04,45,13.30
2016,06,21,04,46,13.30
2016,06,21,04,47,13.30
2016,06,21,04,48,13.30
2016,06,21,04,49,13.30
2016,06,21,04,50,13.30
2016,06,21,04,51,13.30
2016,06,21,04,52,13.30
2016,06,21,04,53,13.30
2016,06,21,04,54,13.30
2016,06,21,04,55,13.40
2016,06,21,04,56,13.40
2016,06,21,04,57,13.40
2016,06,21,04,58,13.40
2016,06,21,04,59,13.40
2016,06,21,05,00,13.40
2016,06,21,05,01,13.40
2016,06,21,05,02,13.40
2016,06,21,05,03,13.40
2016,06,21,05,04,13.40
2016,06,21,05,05,13.40
2016,06,21,05,06,13.40
2016,06,21,05,07,13.40
2016,06,21,05,08,13.40
2016,06,21,05,09,13.40
2016,06,21,05,10,13.40
2016,06,21,05,11,13.40
2016,06,21,05,12,13.40
2016,06,21,05,13,13.40
2016,06,21,05,14,13.40
2016,06,21,05,15,13.40
2016,06,21,05,16,13.30
2016,06,21,05,17,13.40
2016,06,21,05,18,13.30
2016,06,21,05,19,13.30
2016,06,21,05,20,13.30
2016,06,21,05,21,13.30
2016,06,21,05,22,13.30
2016,06,21,05,23,13.30
2016,06,21,05,24,13.30
2016,06,21,05,25,13.30
2016,06,21,05,26,13.30
2016,06,21,05,27,13.30
2016,06,21,05,28,13.30
2016,06,21,05,29,13.20
2016,06,21,05,30,13.20
2016,06,21,05,31,13.20
2016,06,21,05,32,13.20
2016,06,21,05,33,13.20
2016,06,21,05,34,13.20
2016,06,21,05,35,13.20
2016,06,21,05,36,13.20
2016,06,21,05,37,13.20
2016,06,21,05,38,13.20
2016,06,21,05,39,13.20
2016,06,21,05,40,13.20
2016,06,21,05,41,13.20
2016,06,21,05,42,13.20
2016,06,21,05,43,13.20
2016,06,21,05,44,13.10
2016,06,21,05,45,13.10
2016,06,21,05,46,13.10
2016,06,21,05,47,13.10
2016,06,21,05,48,13.10
2016,06,21,05,49,13.10
2016,06,21,05,50,13.10
2016,06,21,05,51,13.10
2016,06,21,05,52,13.10
2016,06,21,05,53,13.10
2016,06,21,05,54,13.10
2016,06,21,05,55,13.10
2016,06,21,05,56,13.00
2016,06,21,05,57,13.00
2016,06,21,05,58,13.00
2016,06,21,05,59,13.00
2016,06,21,06,00,13.00
2016,06,21,06,01,12.90
2016,06,21,06,02,13.00
2016,06,21,06,03,13.00
2016,06,21,06,04,13.00
2016,06,21,06,05,12.90
2016,06,21,06,06,12.90
2016,06,21,06,07,12.90
2016,06,21,06,08,12.90
2016,06,21,06,09,12.90
2016,06,21,06,10,12.90
2016,06,21,06,11,12.90
2016,06,21,06,12,12.90
2016,06,21,06,13,12.90
2016,06,21,06,14,12.90
2016,06,21,06,15,12.90
2016,06,21,06,16,12.90
2016,06,21,06,17,12.90
2016,06,21,06,18,12.90
2016,06,21,06,19,12.90
2016,06,21,06,20,12.80
2016,06,21,06,21,12.80
2016,06,21,06,22,12.80
2016,06,21,06,23,12.80
2016,06,21,06,24,12.80
2016,06,21,06,25,12.80
2016,06,21,06,26,12.80
2016,06,21,06,27,12.80
2016,06,21,06,28,12.80
2016,06,21,06,29,12.80
2016,06,21,06,30,12.90
2016,06,21,06,31,12.90
2016,06,21,06,32,12.90
2016,06,21,06,33,12.90
2016,06,21,06,34,12.90
2016,06,21,06,35,12.90
2016,06,21,06,36,12.90
2016,06,21,06,37,12.90
2016,06,21,06,38,12.90
2016,06,21,06,39,12.90
2016,06,21,06,40,12.90
2016,06,21,06,41,12.90
2016,06,21,06,42,13.00
2016,06,21,06,43,13.00
2016,06,21,06,44,13.10
2016,06,21,06,45,13.10
2016,06,21,06,46,13.10
2016,06,21,06,47,13.10
2016,06,21,06,48,13.20
2016,06,21,06,49,13.20
2016,06,21,06,50,13.20
2016,06,21,06,51,13.20
2016,06,21,06,52,13.30
2016,06,21,06,53,13.30
2016,06,21,06,54,13.30
2016,06,21,06,55,13.40
2016,06,21,06,56,13.40
2016,06,21,06,57,13.40
2016,06,21,06,58,13.50
2016,06,21,06,59,13.50
2016,06,21,07,00,13.60
2016,06,21,07,01,13.60
2016,06,21,07,02,13.60
2016,06,21,07,03,13.70
2016,06,21,07,04,13.70
2016,06,21,07,05,13.70
2016,06,21,07,06,13.70
2016,06,21,07,07,13.80
2016,06,21,07,08,13.80
2016,06,21,07,09,13.80
2016,06,21,07,10,13.80
2016,06,21,07,11,13.80
2016,06,21,07,12,13.80
2016,06,21,07,13,13.90
2016,06,21,07,14,13.90
2016,06,21,07,15,13.90
2016,06,21,07,16,13.90
2016,06,21,07,17,13.90
2016,06,21,07,18,13.90
2016,06,21,07,19,13.90
2016,06,21,07,20,13.90
2016,06,21,07,21,13.90
2016,06,21,07,22,13.90
2016,06,21,07,23,13.90
2016,06,21,07,24,13.90
2016,06,21,07,25,13.90
2016,06,21,07,26,13.80
2016,06,21,07,27,13.90
2016,06,21,07,28,13.90
2016,06,21,07,29,13.90
2016,06,21,07,30,13.90
2016,06,21,07,31,13.90
2016,06,21,07,32,14.00
2016,06,21,07,33,14.00
2016,06,21,07,34,14.00
2016,06,21,07,35,14.10
2016,06,21,07,36,14.10
2016,06,21,07,37,14.10
2016,06,21,07,38,14.20
2016,06,21,07,39,14.20
2016,06,21,07,40,14.20
2016,06,21,07,41,14.20
2016,06,21,07,42,14.30
2016,06,21,07,43,14.30
2016,06,21,07,44,14.40
2016,06,21,07,45,14.40
2016,06,21,07,46,14.50
2016,06,21,07,47,14.60
2016,06,21,07,48,14.60
2016,06,21,07,49,14.70
2016,06,21,07,50,14.70
2016,06,21,07,51,14.70
2016,06,21,07,52,14.80
2016,06,21,07,53,14.80
2016,06,21,07,54,14.80
2016,06,21,07,55,14.90
2016,06,21,07,56,14.90
2016,06,21,07,57,14.90
2016,06,21,07,58,15.00
2016,06,21,07,59,15.00
2016,06,21,08,00,15.10
2016,06,21,08,01,15.10
2016,06,21,08,02,15.10
2016,06,21,08,03,15.20
2016,06,21,08,04,15.20
2016,06,21,08,05,15.20
2016,06,21,08,06,15.30
2016,06,21,08,07,15.30
2016,06,21,08,08,15.40
2016,06,21,08,09,15.40
2016,06,21,08,10,15.50
2016,06,21,08,11,15.50
2016,06,21,08,12,15.50
2016,06,21,08,13,15.60
2016,06,21,08,14,15.60
2016,06,21,08,15,15.60
2016,06,21,08,16,15.70
2016,06,21,08,17,15.70
2016,06,21,08,18,15.70
2016,06,21,08,19,15.80
2016,06,21,08,20,15.80
2016,06,21,08,21,15.80
2016,06,21,08,22,15.80
2016,06,21,08,23,15.90
2016,06,21,08,24,15.90
2016,06,21,08,25,16.00
2016,06,21,08,26,16.00
2016,06,21,08,27,16.10
2016,06,21,08,28,16.10
2016,06,21,08,29,16.20
2016,06,21,08,30,16.20
2016,06,21,08,31,16.20
2016,06,21,08,32,16.30
2016,06,21,08,33,16.30
2016,06,21,08,34,16.30
2016,06,21,08,35,16.40
2016,06,21,08,36,16.40
2016,06,21,08,37,16.40
2016,06,21,08,38,16.50
2016,06,21,08,39,16.50
2016,06,21,08,40,16.50
2016,06,21,08,41,16.60
2016,06,21,08,42,16.60
2016,06,21,08,43,16.70
2016,06,21,08,44,16.70
2016,06,21,08,45,16.70
2016,06,21,08,46,16.80
2016,06,21,08,47,16.80
2016,06,21,08,48,16.80
2016,06,21,08,49,16.90
2016,06,21,08,50,16.90
2016,06,21,08,51,16.90
2016,06,21,08,52,17.00
2016,06,21,08,53,17.00
2016,06,21,08,54,17.00
2016,06,21,08,55,17.10
2016,06,21,08,56,17.10
2016,06,21,08,57,17.10
2016,06,21,08,58,17.10
2016,06,21,08,59,17.10
2016,06,21,09,00,17.10
2016,06,21,09,01,17.20
2016,06,21,09,02,17.20
2016,06,21,09,03,17.20
2016,06,21,09,04,17.20
2016,06,21,09,05,17.20
2016,06,21,09,06,17.10
2016,06,21,09,07,17.10
2016,06,21,09,08,17.10
2016,06,21,09,09,17.10
2016,06,21,09,10,17.10
2016,06,21,09,11,17.20
2016,06,21,09,12,17.20
2016,06,21,09,13,17.20
2016,06,21,09,14,17.20
2016,06,21,09,15,17.30
2016,06,21,09,16,17.30
2016,06,21,09,17,17.40
2016,06,21,09,18,17.40
2016,06,21,09,19,17.50
2016,06,21,09,20,17.50
2016,06,21,09,21,17.60
2016,06,21,09,22,17.60
2016,06,21,09,23,17.70
2016,06,21,09,24,17.70
2016,06,21,09,25,17.70
2016,06,21,09,26,17.80
2016,06,21,09,27,17.80
2016,06,21,09,28,17.90
2016,06,21,09,29,17.90
2016,06,21,09,30,18.00
2016,06,21,09,31,18.00
2016,06,21,09,32,18.10
2016,06,21,09,33,18.10
2016,06,21,09,34,18.10
2016,06,21,09,35,18.10
2016,06,21,09,36,18.10
2016,06,21,09,37,18.10
2016,06,21,09,38,18.10
2016,06,21,09,39,18.10
2016,06,21,09,40,18.10
2016,06,21,09,41,18.10
2016,06,21,09,42,18.10
2016,06,21,09,43,18.00
2016,06,21,09,44,18.00
2016,06,21,09,45,18.00
2016,06,21,09,46,17.90
2016,06,21,09,47,17.90
2016,06,21,09,48,17.90
2016,06,21,09,49,17.80
2016,06,21,09,50,17.80
2016,06,21,09,51,17.80
2016,06,21,09,52,17.80
2016,06,21,09,53,17.80
2016,06,21,09,54,17.90
2016,06,21,09,55,17.80
2016,06,21,09,56,17.80
2016,06,21,09,57,17.80
2016,06,21,09,58,17.90
2016,06,21,09,59,17.90
2016,06,21,10,00,18.00
2016,06,21,10,01,18.10
2016,06,21,10,02,18.10
2016,06,21,10,03,18.20
2016,06,21,10,04,18.30
2016,06,21,10,05,18.30
2016,06,21,10,06,18.40
2016,06,21,10,07,18.40
2016,06,21,10,08,18.40
2016,06,21,10,09,18.50
2016,06,21,10,10,18.60
2016,06,21,10,11,18.60
2016,06,21,10,12,18.70
2016,06,21,10,13,18.60
2016,06,21,10,14,18.60
2016,06,21,10,15,18.50
2016,06,21,10,16,18.40
2016,06,21,10,17,18.40
2016,06,21,10,18,18.30
2016,06,21,10,19,18.30
2016,06,21,10,20,18.30
2016,06,21,10,21,18.30
2016,06,21,10,22,18.40
2016,06,21,10,23,18.50
2016,06,21,10,24,18.60
2016,06,21,10,25,18.60
2016,06,21,10,26,18.60
2016,06,21,10,27,18.60
2016,06,21,10,28,18.70
2016,06,21,10,29,18.60
2016,06,21,10,30,18.70
2016,06,21,10,31,18.60
2016,06,21,10,32,18.60
2016,06,21,10,33,18.60
2016,06,21,10,34,18.60
2016,06,21,10,35,18.60
2016,06,21,10,36,18.60
2016,06,21,10,37,18.70
2016,06,21,10,38,18.70
2016,06,21,10,39,18.90
2016,06,21,10,40,19.00
2016,06,21,10,41,19.10
2016,06,21,10,42,19.10
2016,06,21,10,43,19.20
2016,06,21,10,44,19.20
2016,06,21,10,45,19.20
2016,06,21,10,46,19.20
2016,06,21,10,47,19.20
2016,06,21,10,48,19.20
2016,06,21,10,49,19.20
2016,06,21,10,50,19.20
2016,06,21,10,51,19.20
2016,06,21,10,52,19.20
2016,06,21,10,53,19.20
2016,06,21,10,54,19.30
2016,06,21,10,55,19.30
2016,06,21,10,56,19.30
2016,06,21,10,57,19.40
2016,06,21,10,58,19.50
2016,06,21,10,59,19.60
2016,06,21,11,00,19.60
2016,06,21,11,01,19.60
2016,06,21,11,02,19.50
2016,06,21,11,03,19.40
2016,06,21,11,04,19.30
2016,06,21,11,05,19.30
2016,06,21,11,06,19.20
2016,06,21,11,07,19.20
2016,06,21,11,08,19.10
2016,06,21,11,09,19.00
2016,06,21,11,10,18.90
2016,06,21,11,11,18.90
2016,06,21,11,12,19.00
2016,06,21,11,13,19.00
2016,06,21,11,14,19.00
2016,06,21,11,15,19.00
2016,06,21,11,16,18.90
2016,06,21,11,17,18.90
2016,06,21,11,18,18.80
2016,06,21,11,19,18.80
2016,06,21,11,20,18.80
2016,06,21,11,21,18.80
2016,06,21,11,22,18.80
2016,06,21,11,23,18.80
2016,06,21,11,24,18.90
2016,06,21,11,25,18.90
2016,06,21,11,26,18.90
2016,06,21,11,27,19.00
2016,06,21,11,28,19.10
2016,06,21,11,29,19.20
2016,06,21,11,30,19.30
2016,06,21,11,31,19.40
2016,06,21,11,32,19.50
2016,06,21,11,33,19.70
2016,06,21,11,34,19.90
2016,06,21,11,35,20.00
2016,06,21,11,36,20.10
2016,06,21,11,37,20.10
2016,06,21,11,38,20.10
2016,06,21,11,39,20.20
2016,06,21,11,40,20.20
2016,06,21,11,41,20.10
2016,06,21,11,42,20.10
2016,06,21,11,43,20.10
2016,06,21,11,44,20.10
2016,06,21,11,45,20.10
2016,06,21,11,46,20.10
2016,06,21,11,47,20.10
2016,06,21,11,48,20.10
2016,06,21,11,49,20.00
2016,06,21,11,50,19.90
2016,06,21,11,51,19.80
2016,06,21,11,52,19.60
2016,06,21,11,53,19.30
2016,06,21,11,54,19.20
2016,06,21,11,55,19.10
2016,06,21,11,56,19.00
2016,06,21,11,57,18.90
2016,06,21,11,58,18.80
2016,06,21,11,59,18.80
2016,06,21,12,00,18.80
2016,06,21,12,01,18.80
2016,06,21,12,02,18.90
2016,06,21,12,03,18.90
2016,06,21,12,04,18.90
2016,06,21,12,05,18.90
2016,06,21,12,06,18.90
2016,06,21,12,07,18.90
2016,06,21,12,08,18.90
2016,06,21,12,09,19.00
2016,06,21,12,10,19.10
2016,06,21,12,11,19.10
2016,06,21,12,12,19.20
2016,06,21,12,13,19.30
2016,06,21,12,14,19.30
2016,06,21,12,15,19.40
2016,06,21,12,16,19.50
2016,06,21,12,17,19.60
2016,06,21,12,18,19.70
2016,06,21,12,19,19.80
2016,06,21,12,20,19.80
2016,06,21,12,21,19.80
2016,06,21,12,22,19.90
2016,06,21,12,23,19.90
2016,06,21,12,24,19.90
2016,06,21,12,25,20.00
2016,06,21,12,26,20.00
2016,06,21,12,27,19.90
2016,06,21,12,28,19.80
2016,06,21,12,29,19.80
2016,06,21,12,30,19.80
2016,06,21,12,31,19.80
2016,06,21,12,32,19.80
2016,06,21,12,33,19.70
2016,06,21,12,34,19.60
2016,06,21,12,35,19.60
2016,06,21,12,36,19.60
2016,06,21,12,37,19.60
2016,06,21,12,38,19.60
2016,06,21,12,39,19.60
2016,06,21,12,40,19.60
2016,06,21,12,41,19.60
2016,06,21,12,42,19.70
2016,06,21,12,43,19.80
2016,06,21,12,44,20.00
2016,06,21,12,45,20.10
2016,06,21,12,46,20.10
2016,06,21,12,47,20.10
2016,06,21,12,48,20.10
2016,06,21,12,49,20.00
2016,06,21,12,50,20.00
2016,06,21,12,51,19.90
2016,06,21,12,52,19.90
2016,06,21,12,53,19.80
2016,06,21,12,54,19.70
2016,06,21,12,55,19.70
2016,06,21,12,56,19.60
2016,06,21,12,57,19.60
2016,06,21,12,58,19.60
2016,06,21,12,59,19.60
2016,06,21,13,00,19.60
2016,06,21,13,01,19.60
2016,06,21,13,02,19.60
2016,06,21,13,03,19.70
2016,06,21,13,04,19.70
2016,06,21,13,05,19.60
2016,06,21,13,06,19.60
2016,06,21,13,07,19.50
2016,06,21,13,08,19.50
2016,06,21,13,09,19.60
2016,06,21,13,10,19.70
2016,06,21,13,11,19.70
2016,06,21,13,12,19.80
2016,06,21,13,13,19.80
2016,06,21,13,14,19.90
2016,06,21,13,15,19.90
2016,06,21,13,16,19.90
2016,06,21,13,17,19.90
2016,06,21,13,18,19.80
2016,06,21,13,19,19.70
2016,06,21,13,20,19.70
2016,06,21,13,21,19.60
2016,06,21,13,22,19.60
2016,06,21,13,23,19.50
2016,06,21,13,24,19.40
2016,06,21,13,25,19.40
2016,06,21,13,26,19.30
2016,06,21,13,27,19.30
2016,06,21,13,28,19.30
2016,06,21,13,29,19.30
2016,06,21,13,30,19.30
2016,06,21,13,31,19.30
2016,06,21,13,32,19.40
2016,06,21,13,33,19.40
2016,06,21,13,34,19.50
2016,06,21,13,35,19.50
2016,06,21,13,36,19.40
2016,06,21,13,37,19.50
2016,06,21,13,38,19.60
2016,06,21,13,39,19.60
2016,06,21,13,40,19.50
2016,06,21,13,41,19.50
2016,06,21,13,42,19.60
2016,06,21,13,43,19.70
2016,06,21,13,44,19.80
2016,06,21,13,45,19.80
2016,06,21,13,46,19.80
2016,06,21,13,47,19.90
2016,06,21,13,48,20.00
2016,06,21,13,49,20.10
2016,06,21,13,50,20.10
2016,06,21,13,51,20.10
2016,06,21,13,52,20.10
2016,06,21,13,53,20.10
2016,06,21,13,54,19.90
2016,06,21,13,55,19.80
2016,06,21,13,56,19.70
2016,06,21,13,57,19.70
2016,06,21,13,58,19.70
2016,06,21,13,59,19.70
2016,06,21,14,00,19.70
2016,06,21,14,01,19.70
2016,06,21,14,02,19.80
2016,06,21,14,03,19.80
2016,06,21,14,04,19.80
2016,06,21,14,05,19.70
2016,06,21,14,06,19.70
2016,06,21,14,07,19.60
2016,06,21,14,08,19.60
2016,06,21,14,09,19.60
2016,06,21,14,10,19.60
2016,06,21,14,11,19.50
2016,06,21,14,12,19.50
2016,06,21,14,13,19.50
2016,06,21,14,14,19.40
2016,06,21,14,15,19.30
2016,06,21,14,16,19.30
2016,06,21,14,17,19.40
2016,06,21,14,18,19.40
2016,06,21,14,19,19.40
2016,06,21,14,20,19.50
2016,06,21,14,21,19.50
2016,06,21,14,22,19.50
2016,06,21,14,23,19.40
2016,06,21,14,24,19.30
2016,06,21,14,25,19.30
2016,06,21,14,26,19.40
2016,06,21,14,27,19.30
2016,06,21,14,28,19.20
2016,06,21,14,29,19.10
2016,06,21,14,30,19.10
2016,06,21,14,31,19.10
2016,06,21,14,32,19.10
2016,06,21,14,33,19.20
2016,06,21,14,34,19.30
2016,06,21,14,35,19.40
2016,06,21,14,36,19.50
2016,06,21,14,37,19.60
2016,06,21,14,38,19.60
2016,06,21,14,39,19.60
2016,06,21,14,40,19.60
2016,06,21,14,41,19.50
2016,06,21,14,42,19.50
2016,06,21,14,43,19.40
2016,06,21,14,44,19.30
2016,06,21,14,45,19.40
2016,06,21,14,46,19.50
2016,06,21,14,47,19.60
2016,06,21,14,48,19.80
2016,06,21,14,49,19.90
2016,06,21,14,50,19.90
2016,06,21,14,51,20.00
2016,06,21,14,52,20.10
2016,06,21,14,53,20.10
2016,06,21,14,54,20.10
2016,06,21,14,55,20.10
2016,06,21,14,56,20.00
2016,06,21,14,57,20.00
2016,06,21,14,58,19.90
2016,06,21,14,59,19.80
2016,06,21,15,00,19.80
2016,06,21,15,01,19.80
2016,06,21,15,02,19.70
2016,06,21,15,03,19.70
2016,06,21,15,04,19.70
2016,06,21,15,05,19.70
2016,06,21,15,06,19.70
2016,06,21,15,07,19.80
2016,06,21,15,08,19.90
2016,06,21,15,09,20.00
2016,06,21,15,10,20.00
2016,06,21,15,11,20.00
2016,06,21,15,12,20.00
2016,06,21,15,13,20.00
2016,06,21,15,14,20.00
2016,06,21,15,15,19.90
2016,06,21,15,16,19.90
2016,06,21,15,17,19.90
2016,06,21,15,18,20.00
2016,06,21,15,19,20.00
2016,06,21,15,20,20.00
2016,06,21,15,21,20.00
2016,06,21,15,22,20.10
2016,06,21,15,23,20.10
2016,06,21,15,24,20.10
2016,06,21,15,25,20.10
2016,06,21,15,26,20.00
2016,06,21,15,27,20.00
2016,06,21,15,28,19.90
2016,06,21,15,29,19.90
2016,06,21,15,30,19.80
2016,06,21,15,31,19.80
2016,06,21,15,32,19.80
2016,06,21,15,33,19.80
2016,06,21,15,34,19.80
2016,06,21,15,35,19.90
2016,06,21,15,36,19.90
2016,06,21,15,37,19.90
2016,06,21,15,38,19.90
2016,06,21,15,39,19.90
2016,06,21,15,40,20.00
2016,06,21,15,41,20.10
2016,06,21,15,42,20.10
2016,06,21,15,43,20.10
2016,06,21,15,44,20.10
2016,06,21,15,45,20.10
2016,06,21,15,46,20.10
2016,06,21,15,47,20.20
2016,06,21,15,48,20.20
2016,06,21,15,49,20.20
2016,06,21,15,50,20.20
2016,06,21,15,51,20.20
2016,06,21,15,52,20.20
2016,06,21,15,53,20.30
2016,06,21,15,54,20.30
2016,06,21,15,55,20.30
2016,06,21,15,56,20.40
2016,06,21,15,57,20.40
2016,06,21,15,58,20.30
2016,06,21,15,59,20.30
2016,06,21,16,00,20.20
2016,06,21,16,01,20.10
2016,06,21,16,02,20.00
2016,06,21,16,03,20.00
2016,06,21,16,04,19.90
2016,06,21,16,05,19.80
2016,06,21,16,06,19.80
2016,06,21,16,07,19.80
2016,06,21,16,08,19.80
2016,06,21,16,09,19.70
2016,06,21,16,10,19.60
2016,06,21,16,11,19.50
2016,06,21,16,12,19.40
2016,06,21,16,13,19.30
2016,06,21,16,14,19.20
2016,06,21,16,15,19.00
2016,06,21,16,16,18.90
2016,06,21,16,17,18.80
2016,06,21,16,18,18.80
2016,06,21,16,19,18.80
2016,06,21,16,20,18.80
2016,06,21,16,21,18.80
2016,06,21,16,22,18.80
2016,06,21,16,23,18.80
2016,06,21,16,24,18.80
2016,06,21,16,25,18.80
2016,06,21,16,26,18.80
2016,06,21,16,27,18.90
2016,06,21,16,28,18.90
2016,06,21,16,29,19.00
2016,06,21,16,30,19.10
2016,06,21,16,31,19.10
2016,06,21,16,32,19.10
2016,06,21,16,33,19.20
2016,06,21,16,34,19.20
2016,06,21,16,35,19.30
2016,06,21,16,36,19.30
2016,06,21,16,37,19.30
2016,06,21,16,38,19.30
2016,06,21,16,39,19.30
2016,06,21,16,40,19.30
2016,06,21,16,41,19.30
2016,06,21,16,42,19.20
2016,06,21,16,43,19.20
2016,06,21,16,44,19.20
2016,06,21,16,45,19.10
2016,06,21,16,46,19.10
2016,06,21,16,47,19.00
2016,06,21,16,48,18.90
2016,06,21,16,49,19.00
2016,06,21,16,50,19.00
2016,06,21,16,51,19.00
2016,06,21,16,52,18.90
2016,06,21,16,53,18.90
2016,06,21,16,54,18.80
2016,06,21,16,55,18.80
2016,06,21,16,56,18.80
2016,06,21,16,57,18.80
2016,06,21,16,58,18.90
2016,06,21,16,59,18.90
2016,06,21,17,00,19.00
2016,06,21,17,01,19.00
2016,06,21,17,02,18.90
2016,06,21,17,03,18.90
2016,06,21,17,04,18.90
2016,06,21,17,05,18.80
2016,06,21,17,06,18.70
2016,06,21,17,07,18.70
2016,06,21,17,08,18.60
2016,06,21,17,09,18.60
2016,06,21,17,10,18.50
2016,06,21,17,11,18.50
2016,06,21,17,12,18.40
2016,06,21,17,13,18.40
2016,06,21,17,14,18.40
2016,06,21,17,15,18.40
2016,06,21,17,16,18.40
2016,06,21,17,17,18.40
2016,06,21,17,18,18.50
2016,06,21,17,19,18.50